Powrót do katalogu

OPS 4682 DEB

AktywnyPO
NORAD 51506·DEBRIS·🇺🇸 United States

Wystrzelony Apr 3, 1965 z Vandenberg Space Force Base

Loading…

Następne Przeloty (najbliższe 24 godziny)

TLE

ŚwieżeSource: Space-Track

Epoka: Sep 12, 2026, 13:42 UTC

1 51506U 65027GS  26255.57110964  .00000411  00000-0  13884-2 0  9992
2 51506  90.2513  15.2244 0040076 211.8301 162.6152 12.97342520708384

Śledź OPS 4682 DEB w czasie rzeczywistym z AllMySat

Download on the App Store